Overview Statistics Trail Chart Weather Telemetry Raw packets
 

This is the latest recevied weather packets stored in our database for station/object YO8SHU-10. If no packets are shown the sender has not sent any weather packets the latest 10 day(s).

<< 4 5 6 7 8 9 10 >>
Time Temp. Humidity Pressure Rain* Wind** Luminosity Snow
1788368444 23.89° C 100% 1023.6 hPa - - - -
1788366644 25.56° C 92% 1023.4 hPa - - - -
1788364844 31.11° C 63% 1023.5 hPa - - - -
1788363044 31.11° C 62% 1023.5 hPa - - - -
1788361244 33.33° C 58% 1023.8 hPa - - - -
1788359444 31.11° C 72% 1023.9 hPa - - - -
1788357643 28.33° C 86% 1024 hPa - - - -
1788355843 27.78° C 95% 1024 hPa - - - -
1788354043 26.11° C 100% 1024.3 hPa - - - -
1788352243 25° C 100% 1024.9 hPa - - - -
1788350443 25° C 100% 1025.2 hPa - - - -
1788348643 26.67° C 96% 1025.3 hPa - - - -
1788346843 26.11° C 92% 1025.3 hPa - - - -
1788345043 30.56° C 76% 1025.5 hPa - - - -
1788343243 27.78° C 85% 1025.9 hPa - - - -
1788341442 26.67° C 96% 1026.3 hPa - - - -
1788339642 26.67° C 100% 1026.6 hPa - - - -
1788337842 25.56° C 100% 1026.7 hPa - - - -
1788336042 24.44° C 100% 1026.7 hPa - - - -
1788334242 23.89° C 100% 1026.9 hPa - - - -
1788332442 22.22° C 100% 1026.9 hPa - - - -
1788330660 21.67° C 100% 1026.7 hPa - - - -
1788328842 20° C 100% 1026.6 hPa - - - -
1788327042 18.89° C 100% 1026.5 hPa - - - -
1788325241 18.33° C 100% 1026.5 hPa - - - -

* Rain since midnight (hover to see other rain measurements)
** Current wind speed in m/s (hover to see current wind gust speed)